Tracking 30417 objects as of 16-May-2025
HD Live streaming from Space Station
objects crossing your sky now

THORAD AGENA D DEB

Track THORAD AGENA D DEB now!
10-day predictions


NORAD ID: 4778
Int'l Code: 1970-025DY
Perigee: 1,033.9 km
Apogee: 1,084.7 km
Inclination: 100.0 °
Period: 106.2 minutes
Semi major axis: 7430 km
RCS: 0.0119 m2 (small)
Launch date: April 8, 1970
Source: United States (US)
Launch site: AIR FORCE WESTERN TEST RANGE (AFWTR)

Note: This is SATELLITE DEBRIS
Your satellite tracking list
Your tracking list is empty




NASA's NSSDC Master Catalog

Two Line Element Set (TLE):
1 04778U 70025DY  25134.38959553  .00000199  00000-0  35258-3 0  9997
2 04778 100.0105 189.0196 0034161 330.9687  43.0871 13.55474374717393
Source of the keplerian elements: AFSPC